Year,Month,Day,Hour,Minute,Value (Times are PST for insolation in W/m^2)
2011,04,29,00,00,0.00
2011,04,29,00,01,0.00
2011,04,29,00,02,0.00
2011,04,29,00,03,0.00
2011,04,29,00,04,0.00
2011,04,29,00,05,0.00
2011,04,29,00,06,0.00
2011,04,29,00,07,0.00
2011,04,29,00,08,0.00
2011,04,29,00,09,0.00
2011,04,29,00,10,0.00
2011,04,29,00,11,0.00
2011,04,29,00,12,0.00
2011,04,29,00,13,0.00
2011,04,29,00,14,0.00
2011,04,29,00,15,0.00
2011,04,29,00,16,0.00
2011,04,29,00,17,0.00
2011,04,29,00,18,0.00
2011,04,29,00,19,0.00
2011,04,29,00,20,0.00
2011,04,29,00,21,0.00
2011,04,29,00,22,0.00
2011,04,29,00,23,0.00
2011,04,29,00,24,0.00
2011,04,29,00,25,0.00
2011,04,29,00,26,0.00
2011,04,29,00,27,0.00
2011,04,29,00,28,0.00
2011,04,29,00,29,0.00
2011,04,29,00,30,0.00
2011,04,29,00,31,0.00
2011,04,29,00,32,0.00
2011,04,29,00,33,0.00
2011,04,29,00,34,0.00
2011,04,29,00,35,0.00
2011,04,29,00,36,0.00
2011,04,29,00,37,0.00
2011,04,29,00,38,0.00
2011,04,29,00,39,0.00
2011,04,29,00,40,0.00
2011,04,29,00,41,0.00
2011,04,29,00,42,0.00
2011,04,29,00,43,0.00
2011,04,29,00,44,0.00
2011,04,29,00,45,0.00
2011,04,29,00,46,0.00
2011,04,29,00,47,0.00
2011,04,29,00,48,0.00
2011,04,29,00,49,0.00
2011,04,29,00,50,0.00
2011,04,29,00,51,0.00
2011,04,29,00,52,0.00
2011,04,29,00,53,0.00
2011,04,29,00,54,0.00
2011,04,29,00,55,0.00
2011,04,29,00,56,0.00
2011,04,29,00,57,0.00
2011,04,29,00,58,0.00
2011,04,29,00,59,0.00
2011,04,29,01,00,0.00
2011,04,29,01,01,0.00
2011,04,29,01,02,0.00
2011,04,29,01,03,0.00
2011,04,29,01,04,0.00
2011,04,29,01,05,0.00
2011,04,29,01,06,0.00
2011,04,29,01,07,0.00
2011,04,29,01,08,0.00
2011,04,29,01,09,0.00
2011,04,29,01,10,0.00
2011,04,29,01,11,0.00
2011,04,29,01,12,0.00
2011,04,29,01,13,0.00
2011,04,29,01,14,0.00
2011,04,29,01,15,0.00
2011,04,29,01,16,0.00
2011,04,29,01,17,0.00
2011,04,29,01,18,0.00
2011,04,29,01,19,0.00
2011,04,29,01,20,0.00
2011,04,29,01,21,0.00
2011,04,29,01,22,0.00
2011,04,29,01,23,0.00
2011,04,29,01,24,0.00
2011,04,29,01,25,0.00
2011,04,29,01,26,0.00
2011,04,29,01,27,0.00
2011,04,29,01,28,0.00
2011,04,29,01,29,0.00
2011,04,29,01,30,0.00
2011,04,29,01,31,0.00
2011,04,29,01,32,0.00
2011,04,29,01,33,0.00
2011,04,29,01,34,0.00
2011,04,29,01,35,0.00
2011,04,29,01,36,0.00
2011,04,29,01,37,0.00
2011,04,29,01,38,0.00
2011,04,29,01,39,0.00
2011,04,29,01,40,0.00
2011,04,29,01,41,0.00
2011,04,29,01,42,0.00
2011,04,29,01,43,0.00
2011,04,29,01,44,0.00
2011,04,29,01,45,0.00
2011,04,29,01,46,0.00
2011,04,29,01,47,0.00
2011,04,29,01,48,0.00
2011,04,29,01,49,0.00
2011,04,29,01,50,0.00
2011,04,29,01,51,0.00
2011,04,29,01,52,0.00
2011,04,29,01,53,0.00
2011,04,29,01,54,0.00
2011,04,29,01,55,0.00
2011,04,29,01,56,0.00
2011,04,29,01,57,0.00
2011,04,29,01,58,0.00
2011,04,29,01,59,0.00
2011,04,29,02,00,0.00
2011,04,29,02,01,0.00
2011,04,29,02,02,0.00
2011,04,29,02,03,0.00
2011,04,29,02,04,0.00
2011,04,29,02,05,0.00
2011,04,29,02,06,0.00
2011,04,29,02,07,0.00
2011,04,29,02,08,0.00
2011,04,29,02,09,0.00
2011,04,29,02,10,0.00
2011,04,29,02,11,0.00
2011,04,29,02,12,0.00
2011,04,29,02,13,0.00
2011,04,29,02,14,0.00
2011,04,29,02,15,0.00
2011,04,29,02,16,0.00
2011,04,29,02,17,0.00
2011,04,29,02,18,0.00
2011,04,29,02,19,0.00
2011,04,29,02,20,0.00
2011,04,29,02,21,0.00
2011,04,29,02,22,0.00
2011,04,29,02,23,0.00
2011,04,29,02,24,0.00
2011,04,29,02,25,0.00
2011,04,29,02,26,0.00
2011,04,29,02,27,0.00
2011,04,29,02,28,0.00
2011,04,29,02,29,0.00
2011,04,29,02,30,0.00
2011,04,29,02,31,0.00
2011,04,29,02,32,0.00
2011,04,29,02,33,0.00
2011,04,29,02,34,0.00
2011,04,29,02,35,0.00
2011,04,29,02,36,0.00
2011,04,29,02,37,0.00
2011,04,29,02,38,0.00
2011,04,29,02,39,0.00
2011,04,29,02,40,0.00
2011,04,29,02,41,0.00
2011,04,29,02,42,0.00
2011,04,29,02,43,0.00
2011,04,29,02,44,0.00
2011,04,29,02,45,0.00
2011,04,29,02,46,0.00
2011,04,29,02,47,0.00
2011,04,29,02,48,0.00
2011,04,29,02,49,0.00
2011,04,29,02,50,0.00
2011,04,29,02,51,0.00
2011,04,29,02,52,0.00
2011,04,29,02,53,0.00
2011,04,29,02,54,0.00
2011,04,29,02,55,0.00
2011,04,29,02,56,0.00
2011,04,29,02,57,0.00
2011,04,29,02,58,0.00
2011,04,29,02,59,0.00
2011,04,29,03,00,0.00
2011,04,29,03,01,0.00
2011,04,29,03,02,0.00
2011,04,29,03,06,0.00
2011,04,29,03,07,0.00
2011,04,29,03,08,0.00
2011,04,29,03,09,0.00
2011,04,29,03,10,0.00
2011,04,29,03,11,0.00
2011,04,29,03,12,0.00
2011,04,29,03,13,0.00
2011,04,29,03,14,0.00
2011,04,29,03,15,0.00
2011,04,29,03,16,0.00
2011,04,29,03,17,0.00
2011,04,29,03,18,0.00
2011,04,29,03,19,0.00
2011,04,29,03,20,0.00
2011,04,29,03,21,0.00
2011,04,29,03,22,0.00
2011,04,29,03,23,0.00
2011,04,29,03,24,0.00
2011,04,29,03,25,0.00
2011,04,29,03,26,0.00
2011,04,29,03,27,0.00
2011,04,29,03,28,0.00
2011,04,29,03,29,0.00
2011,04,29,03,30,0.00
2011,04,29,03,31,0.00
2011,04,29,03,32,0.00
2011,04,29,03,33,0.00
2011,04,29,03,34,0.00
2011,04,29,03,35,0.00
2011,04,29,03,36,0.00
2011,04,29,03,37,0.00
2011,04,29,03,38,0.00
2011,04,29,03,39,0.00
2011,04,29,03,40,0.00
2011,04,29,03,41,0.00
2011,04,29,03,42,0.00
2011,04,29,03,43,0.00
2011,04,29,03,44,0.00
2011,04,29,03,45,0.00
2011,04,29,03,46,0.00
2011,04,29,03,47,0.00
2011,04,29,03,48,0.00
2011,04,29,03,49,0.00
2011,04,29,03,50,0.00
2011,04,29,03,51,0.00
2011,04,29,03,52,0.00
2011,04,29,03,53,0.00
2011,04,29,03,54,0.00
2011,04,29,03,55,0.00
2011,04,29,03,56,0.00
2011,04,29,03,57,0.00
2011,04,29,03,58,0.00
2011,04,29,03,59,0.00
2011,04,29,04,00,0.00
2011,04,29,04,01,0.00
2011,04,29,04,02,0.00
2011,04,29,04,03,0.00
2011,04,29,04,04,0.00
2011,04,29,04,05,0.00
2011,04,29,04,06,0.00
2011,04,29,04,07,0.00
2011,04,29,04,08,0.00
2011,04,29,04,09,0.00
2011,04,29,04,10,0.00
2011,04,29,04,11,0.00
2011,04,29,04,12,0.00
2011,04,29,04,13,0.00
2011,04,29,04,14,0.00
2011,04,29,04,15,0.00
2011,04,29,04,16,0.00
2011,04,29,04,17,0.00
2011,04,29,04,18,0.00
2011,04,29,04,19,0.00
2011,04,29,04,20,0.00
2011,04,29,04,21,0.00
2011,04,29,04,22,0.00
2011,04,29,04,23,0.00
2011,04,29,04,24,0.00
2011,04,29,04,25,0.00
2011,04,29,04,26,0.00
2011,04,29,04,27,0.00
2011,04,29,04,28,0.00
2011,04,29,04,29,0.00
2011,04,29,04,30,0.00
2011,04,29,04,31,0.00
2011,04,29,04,32,0.00
2011,04,29,04,33,0.00
2011,04,29,04,34,0.00
2011,04,29,04,35,0.00
2011,04,29,04,36,0.00
2011,04,29,04,37,0.00
2011,04,29,04,38,0.00
2011,04,29,04,39,0.00
2011,04,29,04,40,0.00
2011,04,29,04,41,0.00
2011,04,29,04,42,0.00
2011,04,29,04,43,0.00
2011,04,29,04,44,0.00
2011,04,29,04,45,0.00
2011,04,29,04,46,0.00
2011,04,29,04,47,0.00
2011,04,29,04,48,0.00
2011,04,29,04,49,0.00
2011,04,29,04,50,0.00
2011,04,29,04,51,0.00
2011,04,29,04,52,0.00
2011,04,29,04,53,0.00
2011,04,29,04,54,0.00
2011,04,29,04,55,0.00
2011,04,29,04,56,0.00
2011,04,29,04,57,0.00
2011,04,29,04,58,0.00
2011,04,29,04,59,0.00
2011,04,29,05,00,0.00
2011,04,29,05,01,0.00
2011,04,29,05,02,0.00
2011,04,29,05,03,0.00
2011,04,29,05,04,0.00
2011,04,29,05,05,0.00
2011,04,29,05,06,0.00
2011,04,29,05,07,0.00
2011,04,29,05,08,0.00
2011,04,29,05,09,0.00
2011,04,29,05,10,0.00
2011,04,29,05,11,0.00
2011,04,29,05,12,0.00
2011,04,29,05,13,0.00
2011,04,29,05,14,0.00
2011,04,29,05,15,0.00
2011,04,29,05,16,0.00
2011,04,29,05,17,0.00
2011,04,29,05,18,0.00
2011,04,29,05,19,0.00
2011,04,29,05,20,0.00
2011,04,29,05,21,0.00
2011,04,29,05,22,0.00
2011,04,29,05,23,0.00
2011,04,29,05,24,0.00
2011,04,29,05,25,0.00
2011,04,29,05,26,0.00
2011,04,29,05,27,0.00
2011,04,29,05,28,0.00
2011,04,29,05,29,0.00
2011,04,29,05,30,0.00
2011,04,29,05,31,0.00
2011,04,29,05,32,0.00
2011,04,29,05,33,0.00
2011,04,29,05,34,0.00
2011,04,29,05,35,0.00
2011,04,29,05,36,0.00
2011,04,29,05,37,0.00
2011,04,29,05,38,0.00
2011,04,29,05,39,0.00
2011,04,29,05,40,0.00
2011,04,29,05,41,0.00
2011,04,29,05,42,0.00
2011,04,29,05,43,0.00
2011,04,29,05,44,0.00
2011,04,29,05,45,0.00
2011,04,29,05,46,0.00
2011,04,29,05,47,0.00
2011,04,29,05,48,0.00
2011,04,29,05,49,0.00
2011,04,29,05,50,0.00
2011,04,29,05,51,0.00
2011,04,29,05,52,0.00
2011,04,29,05,53,0.00
2011,04,29,05,54,0.00
2011,04,29,05,55,0.00
2011,04,29,05,56,0.00
2011,04,29,05,57,0.00
2011,04,29,05,58,0.00
2011,04,29,05,59,0.00
2011,04,29,06,00,0.00
2011,04,29,06,01,0.00
2011,04,29,06,02,0.00
2011,04,29,06,03,2.00
2011,04,29,06,04,5.00
2011,04,29,06,05,5.00
2011,04,29,06,06,5.00
2011,04,29,06,07,5.00
2011,04,29,06,08,6.40
2011,04,29,06,09,7.00
2011,04,29,06,10,7.00
2011,04,29,06,11,7.00
2011,04,29,06,12,8.80
2011,04,29,06,13,9.00
2011,04,29,06,14,9.30
2011,04,29,06,15,11.00
2011,04,29,06,16,11.00
2011,04,29,06,17,11.00
2011,04,29,06,18,11.00
2011,04,29,06,19,11.40
2011,04,29,06,20,12.00
2011,04,29,06,21,12.00
2011,04,29,06,22,12.00
2011,04,29,06,23,13.30
2011,04,29,06,24,14.00
2011,04,29,06,25,15.60
2011,04,29,06,26,16.00
2011,04,29,06,27,16.00
2011,04,29,06,28,16.00
2011,04,29,06,29,16.00
2011,04,29,06,30,16.00
2011,04,29,06,31,16.50
2011,04,29,06,32,18.00
2011,04,29,06,33,18.00
2011,04,29,06,34,18.00
2011,04,29,06,35,18.50
2011,04,29,06,36,19.00
2011,04,29,06,37,20.30
2011,04,29,06,38,21.00
2011,04,29,06,39,22.50
2011,04,29,06,40,23.00
2011,04,29,06,41,25.60
2011,04,29,06,42,27.90
2011,04,29,06,43,28.10
2011,04,29,06,44,30.20
2011,04,29,06,45,32.20
2011,04,29,06,46,33.00
2011,04,29,06,47,34.80
2011,04,29,06,48,39.00
2011,04,29,06,49,39.50
2011,04,29,06,50,41.00
2011,04,29,06,51,43.10
2011,04,29,06,52,45.20
2011,04,29,06,53,46.70
2011,04,29,06,54,48.50
2011,04,29,06,55,49.00
2011,04,29,06,56,55.00
2011,04,29,06,57,57.80
2011,04,29,06,58,58.20
2011,04,29,06,59,63.40
2011,04,29,07,00,67.00
2011,04,29,07,01,67.50
2011,04,29,07,02,70.00
2011,04,29,07,03,72.80
2011,04,29,07,04,74.80
2011,04,29,07,05,77.50
2011,04,29,07,06,81.80
2011,04,29,07,07,85.30
2011,04,29,07,08,89.30
2011,04,29,07,09,94.00
2011,04,29,07,10,93.30
2011,04,29,07,11,96.40
2011,04,29,07,12,99.70
2011,04,29,07,13,104.30
2011,04,29,07,14,109.00
2011,04,29,07,15,109.80
2011,04,29,07,16,113.80
2011,04,29,07,17,116.60
2011,04,29,07,18,119.10
2011,04,29,07,19,122.60
2011,04,29,07,20,129.50
2011,04,29,07,21,137.90
2011,04,29,07,22,137.40
2011,04,29,07,23,137.80
2011,04,29,07,24,142.70
2011,04,29,07,25,145.60
2011,04,29,07,26,148.60
2011,04,29,07,27,152.60
2011,04,29,07,28,153.30
2011,04,29,07,29,160.70
2011,04,29,07,30,166.20
2011,04,29,07,31,164.50
2011,04,29,07,32,170.50
2011,04,29,07,33,174.70
2011,04,29,07,34,178.00
2011,04,29,07,35,183.50
2011,04,29,07,36,188.30
2011,04,29,07,37,193.00
2011,04,29,07,38,197.60
2011,04,29,07,39,205.00
2011,04,29,07,40,208.60
2011,04,29,07,41,206.40
2011,04,29,07,42,206.00
2011,04,29,07,43,210.90
2011,04,29,07,44,214.20
2011,04,29,07,45,217.80
2011,04,29,07,46,225.00
2011,04,29,07,47,225.60
2011,04,29,07,48,227.70
2011,04,29,07,49,229.40
2011,04,29,07,50,232.00
2011,04,29,07,51,238.10
2011,04,29,07,52,239.80
2011,04,29,07,53,239.00
2011,04,29,07,54,247.60
2011,04,29,07,55,250.20
2011,04,29,07,56,250.90
2011,04,29,07,57,254.60
2011,04,29,07,58,257.00
2011,04,29,07,59,258.60
2011,04,29,08,00,264.00
2011,04,29,08,01,264.80
2011,04,29,08,02,267.60
2011,04,29,08,03,270.80
2011,04,29,08,04,274.80
2011,04,29,08,05,277.00
2011,04,29,08,06,279.70
2011,04,29,08,07,285.40
2011,04,29,08,08,287.30
2011,04,29,08,09,287.70
2011,04,29,08,10,291.20
2011,04,29,08,11,296.20
2011,04,29,08,12,297.00
2011,04,29,08,13,301.10
2011,04,29,08,14,302.70
2011,04,29,08,15,309.00
2011,04,29,08,16,310.00
2011,04,29,08,17,313.90
2011,04,29,08,18,319.10
2011,04,29,08,19,325.80
2011,04,29,08,20,331.50
2011,04,29,08,21,336.00
2011,04,29,08,22,337.20
2011,04,29,08,23,338.60
2011,04,29,08,24,342.00
2011,04,29,08,25,344.60
2011,04,29,08,26,355.20
2011,04,29,08,27,355.20
2011,04,29,08,28,355.00
2011,04,29,08,29,355.40
2011,04,29,08,30,360.00
2011,04,29,08,31,369.00
2011,04,29,08,32,384.90
2011,04,29,08,33,401.00
2011,04,29,08,34,401.00
2011,04,29,08,35,402.50
2011,04,29,08,36,404.00
2011,04,29,08,37,276.40
2011,04,29,08,38,215.60
2011,04,29,08,39,244.00
2011,04,29,08,40,261.40
2011,04,29,08,41,264.00
2011,04,29,08,42,241.50
2011,04,29,08,43,253.00
2011,04,29,08,44,262.90
2011,04,29,08,45,253.00
2011,04,29,08,46,253.00
2011,04,29,08,47,253.00
2011,04,29,08,48,253.00
2011,04,29,08,49,253.00
2011,04,29,08,50,240.60
2011,04,29,08,51,190.10
2011,04,29,08,52,182.20
2011,04,29,08,53,197.00
2011,04,29,08,54,197.00
2011,04,29,08,55,219.40
2011,04,29,08,56,225.00
2011,04,29,08,57,270.90
2011,04,29,08,58,276.00
2011,04,29,08,59,272.00
2011,04,29,09,00,235.60
2011,04,29,09,01,249.20
2011,04,29,09,02,295.00
2011,04,29,09,03,295.00
2011,04,29,09,04,376.40
2011,04,29,09,05,519.10
2011,04,29,09,06,557.00
2011,04,29,09,07,561.20
2011,04,29,09,08,573.10
2011,04,29,09,09,578.00
2011,04,29,09,10,260.40
2011,04,29,09,11,181.00
2011,04,29,09,12,187.30
2011,04,29,09,13,192.80
2011,04,29,09,14,193.00
2011,04,29,09,15,193.00
2011,04,29,09,16,278.50
2011,04,29,09,17,547.80
2011,04,29,09,18,536.00
2011,04,29,09,19,529.60
2011,04,29,09,20,528.00
2011,04,29,09,21,540.70
2011,04,29,09,22,553.40
2011,04,29,09,23,556.30
2011,04,29,09,24,547.50
2011,04,29,09,25,547.20
2011,04,29,09,26,539.50
2011,04,29,09,27,538.00
2011,04,29,09,28,540.00
2011,04,29,09,29,541.20
2011,04,29,09,30,543.40
2011,04,29,09,31,546.20
2011,04,29,09,32,550.60
2011,04,29,09,33,552.00
2011,04,29,09,34,553.20
2011,04,29,09,35,557.00
2011,04,29,09,36,563.70
2011,04,29,09,37,565.00
2011,04,29,09,38,563.70
2011,04,29,09,39,564.00
2011,04,29,09,40,567.00
2011,04,29,09,41,570.50
2011,04,29,09,42,574.60
2011,04,29,09,43,592.10
2011,04,29,09,44,614.70
2011,04,29,09,45,628.20
2011,04,29,09,46,620.50
2011,04,29,09,47,607.90
2011,04,29,09,48,600.50
2011,04,29,09,49,593.80
2011,04,29,09,50,594.50
2011,04,29,09,51,602.40
2011,04,29,09,52,608.40
2011,04,29,09,53,611.30
2011,04,29,09,54,612.80
2011,04,29,09,55,617.80
2011,04,29,09,56,619.00
2011,04,29,09,57,619.00
2011,04,29,09,58,622.20
2011,04,29,09,59,625.80
2011,04,29,10,00,624.80
2011,04,29,10,01,632.50
2011,04,29,10,02,643.50
2011,04,29,10,03,650.60
2011,04,29,10,04,667.90
2011,04,29,10,05,687.90
2011,04,29,10,06,705.50
2011,04,29,10,07,688.30
2011,04,29,10,08,693.20
2011,04,29,10,09,697.30
2011,04,29,10,10,669.30
2011,04,29,10,11,704.30
2011,04,29,10,12,699.40
2011,04,29,10,13,685.60
2011,04,29,10,14,678.60
2011,04,29,10,15,674.70
2011,04,29,10,16,674.00
2011,04,29,10,17,680.00
2011,04,29,10,18,689.50
2011,04,29,10,19,694.00
2011,04,29,10,20,699.80
2011,04,29,10,21,675.10
2011,04,29,10,22,677.20
2011,04,29,10,23,692.50
2011,04,29,10,24,694.60
2011,04,29,10,25,688.00
2011,04,29,10,26,692.70
2011,04,29,10,27,697.60
2011,04,29,10,28,708.70
2011,04,29,10,29,722.00
2011,04,29,10,30,727.80
2011,04,29,10,31,759.00
2011,04,29,10,32,759.00
2011,04,29,10,33,756.20
2011,04,29,10,34,738.20
2011,04,29,10,35,730.70
2011,04,29,10,36,706.50
2011,04,29,10,37,700.20
2011,04,29,10,38,734.50
2011,04,29,10,39,760.20
2011,04,29,10,40,766.00
2011,04,29,10,41,766.00
2011,04,29,10,42,766.00
2011,04,29,10,43,766.00
2011,04,29,10,44,762.70
2011,04,29,10,45,733.80
2011,04,29,10,46,739.00
2011,04,29,10,47,744.10
2011,04,29,10,48,752.50
2011,04,29,10,49,762.20
2011,04,29,10,50,756.50
2011,04,29,10,51,747.00
2011,04,29,10,52,747.00
2011,04,29,10,53,754.20
2011,04,29,10,54,758.80
2011,04,29,10,55,791.80
2011,04,29,10,56,800.00
2011,04,29,10,57,800.00
2011,04,29,10,58,765.00
2011,04,29,10,59,765.90
2011,04,29,11,00,764.70
2011,04,29,11,01,763.00
2011,04,29,11,02,763.00
2011,04,29,11,03,765.50
2011,04,29,11,04,770.00
2011,04,29,11,05,774.00
2011,04,29,11,06,780.60
2011,04,29,11,07,785.30
2011,04,29,11,08,784.10
2011,04,29,11,09,782.00
2011,04,29,11,10,779.60
2011,04,29,11,11,779.00
2011,04,29,11,12,781.70
2011,04,29,11,13,785.90
2011,04,29,11,14,788.50
2011,04,29,11,15,794.00
2011,04,29,11,16,800.00
2011,04,29,11,17,800.00
2011,04,29,11,18,799.30
2011,04,29,11,19,800.00
2011,04,29,11,20,807.50
2011,04,29,11,21,816.70
2011,04,29,11,22,822.80
2011,04,29,11,23,828.50
2011,04,29,11,24,853.50
2011,04,29,11,25,909.90
2011,04,29,11,26,923.00
2011,04,29,11,27,923.00
2011,04,29,11,28,853.90
2011,04,29,11,29,836.10
2011,04,29,11,30,835.40
2011,04,29,11,31,853.00
2011,04,29,11,32,819.40
2011,04,29,11,33,826.00
2011,04,29,11,34,826.00
2011,04,29,11,35,855.00
2011,04,29,11,36,884.00
2011,04,29,11,37,884.00
2011,04,29,11,38,884.00
2011,04,29,11,39,884.00
2011,04,29,11,40,884.00
2011,04,29,11,41,887.40
2011,04,29,11,42,888.00
2011,04,29,11,43,853.30
2011,04,29,11,44,839.70
2011,04,29,11,45,837.00
2011,04,29,11,46,838.80
2011,04,29,11,47,844.00
2011,04,29,11,48,848.90
2011,04,29,11,49,859.30
2011,04,29,11,50,861.00
2011,04,29,11,51,859.30
2011,04,29,11,52,859.80
2011,04,29,11,53,871.90
2011,04,29,11,54,862.30
2011,04,29,11,55,856.00
2011,04,29,11,56,850.30
2011,04,29,11,57,852.60
2011,04,29,11,58,853.20
2011,04,29,11,59,855.70
2011,04,29,12,00,853.60
2011,04,29,12,01,856.00
2011,04,29,12,02,856.50
2011,04,29,12,03,857.30
2011,04,29,12,04,856.80
2011,04,29,12,05,858.90
2011,04,29,12,06,860.50
2011,04,29,12,07,862.20
2011,04,29,12,08,865.70
2011,04,29,12,09,870.50
2011,04,29,12,10,870.50
2011,04,29,12,11,870.00
2011,04,29,12,12,878.10
2011,04,29,12,13,882.00
2011,04,29,12,14,882.40
2011,04,29,12,15,885.40
2011,04,29,12,16,881.80
2011,04,29,12,17,881.00
2011,04,29,12,18,880.30
2011,04,29,12,19,881.20
2011,04,29,12,20,884.90
2011,04,29,12,21,887.00
2011,04,29,12,22,886.80
2011,04,29,12,23,884.60
2011,04,29,12,24,884.00
2011,04,29,12,25,884.00
2011,04,29,12,26,888.20
2011,04,29,12,27,892.60
2011,04,29,12,28,889.00
2011,04,29,12,29,890.70
2011,04,29,12,30,889.00
2011,04,29,12,31,893.40
2011,04,29,12,32,894.40
2011,04,29,12,33,893.00
2011,04,29,12,34,894.30
2011,04,29,12,35,903.10
2011,04,29,12,36,911.00
2011,04,29,12,37,911.00
2011,04,29,12,38,911.00
2011,04,29,12,39,897.00
2011,04,29,12,40,894.80
2011,04,29,12,41,896.00
2011,04,29,12,42,901.40
2011,04,29,12,43,908.70
2011,04,29,12,44,903.80
2011,04,29,12,45,901.70
2011,04,29,12,46,900.00
2011,04,29,12,47,901.00
2011,04,29,12,48,904.00
2011,04,29,12,49,904.00
2011,04,29,12,50,904.50
2011,04,29,12,51,905.00
2011,04,29,12,52,906.20
2011,04,29,12,53,907.00
2011,04,29,12,54,907.00
2011,04,29,12,55,907.00
2011,04,29,12,56,908.60
2011,04,29,12,57,910.80
2011,04,29,12,58,911.00
2011,04,29,12,59,911.00
2011,04,29,13,00,911.00
2011,04,29,13,01,911.70
2011,04,29,13,02,913.50
2011,04,29,13,03,912.70
2011,04,29,13,04,914.00
2011,04,29,13,05,914.90
2011,04,29,13,06,915.00
2011,04,29,13,07,915.20
2011,04,29,13,08,916.00
2011,04,29,13,09,916.00
2011,04,29,13,10,916.00
2011,04,29,13,11,916.00
2011,04,29,13,12,918.70
2011,04,29,13,13,919.00
2011,04,29,13,14,919.20
2011,04,29,13,15,921.20
2011,04,29,13,16,923.40
2011,04,29,13,17,926.20
2011,04,29,13,18,928.60
2011,04,29,13,19,947.70
2011,04,29,13,20,983.00
2011,04,29,13,21,1015.10
2011,04,29,13,22,1064.00
2011,04,29,13,23,1079.00
2011,04,29,13,24,719.90
2011,04,29,13,25,566.00
2011,04,29,13,26,348.40
2011,04,29,13,27,294.00
2011,04,29,13,28,294.00
2011,04,29,13,29,294.00
2011,04,29,13,30,294.00
2011,04,29,13,31,294.00
2011,04,29,13,32,345.10
2011,04,29,13,33,473.00
2011,04,29,13,34,473.00
2011,04,29,13,35,813.70
2011,04,29,13,36,1230.00
2011,04,29,13,37,1230.00
2011,04,29,13,38,1230.00
2011,04,29,13,39,1230.00
2011,04,29,13,40,1230.00
2011,04,29,13,41,1230.00
2011,04,29,13,42,1230.00
2011,04,29,13,43,1230.00
2011,04,29,13,44,1230.00
2011,04,29,13,45,1230.00
2011,04,29,13,46,1230.00
2011,04,29,13,47,1230.00
2011,04,29,13,48,1230.00
2011,04,29,13,49,1230.00
2011,04,29,13,50,1230.00
2011,04,29,13,51,1118.50
2011,04,29,13,52,1005.90
2011,04,29,13,53,1001.80
2011,04,29,13,54,997.90
2011,04,29,13,55,982.00
2011,04,29,13,56,965.80
2011,04,29,13,57,954.90
2011,04,29,13,58,947.10
2011,04,29,13,59,941.90
2011,04,29,14,00,939.90
2011,04,29,14,01,938.60
2011,04,29,14,02,936.40
2011,04,29,14,03,934.40
2011,04,29,14,04,933.00
2011,04,29,14,05,930.80
2011,04,29,14,06,926.50
2011,04,29,14,07,925.00
2011,04,29,14,08,925.00
2011,04,29,14,09,945.00
2011,04,29,14,10,934.80
2011,04,29,14,11,932.40
2011,04,29,14,12,928.50
2011,04,29,14,13,921.30
2011,04,29,14,14,917.90
2011,04,29,14,15,915.70
2011,04,29,14,16,915.80
2011,04,29,14,17,925.00
2011,04,29,14,18,930.00
2011,04,29,14,19,930.00
2011,04,29,14,20,930.00
2011,04,29,14,21,930.00
2011,04,29,14,22,930.00
2011,04,29,14,23,945.20
2011,04,29,14,24,938.60
2011,04,29,14,25,923.80
2011,04,29,14,26,921.00
2011,04,29,14,27,903.90
2011,04,29,14,28,902.00
2011,04,29,14,29,889.70
2011,04,29,14,30,890.30
2011,04,29,14,31,836.00
2011,04,29,14,32,903.00
2011,04,29,14,33,900.70
2011,04,29,14,34,899.60
2011,04,29,14,35,895.60
2011,04,29,14,36,890.50
2011,04,29,14,37,886.00
2011,04,29,14,38,886.00
2011,04,29,14,39,884.70
2011,04,29,14,40,884.00
2011,04,29,14,41,881.60
2011,04,29,14,42,879.20
2011,04,29,14,43,879.00
2011,04,29,14,44,879.00
2011,04,29,14,45,879.00
2011,04,29,14,46,878.20
2011,04,29,14,47,876.10
2011,04,29,14,48,878.40
2011,04,29,14,49,877.00
2011,04,29,14,50,875.70
2011,04,29,14,51,874.00
2011,04,29,14,52,872.80
2011,04,29,14,53,872.00
2011,04,29,14,54,870.50
2011,04,29,14,55,870.00
2011,04,29,14,56,868.40
2011,04,29,14,57,869.80
2011,04,29,14,58,870.00
2011,04,29,14,59,885.90
2011,04,29,15,00,884.30
2011,04,29,15,01,870.20
2011,04,29,15,02,824.00
2011,04,29,15,03,872.00
2011,04,29,15,04,863.40
2011,04,29,15,05,857.80
2011,04,29,15,06,853.50
2011,04,29,15,07,851.80
2011,04,29,15,08,851.00
2011,04,29,15,09,848.20
2011,04,29,15,10,847.00
2011,04,29,15,11,848.70
2011,04,29,15,12,847.30
2011,04,29,15,13,846.00
2011,04,29,15,14,842.10
2011,04,29,15,15,843.70
2011,04,29,15,16,841.00
2011,04,29,15,17,837.00
2011,04,29,15,18,836.30
2011,04,29,15,19,834.20
2011,04,29,15,20,833.00
2011,04,29,15,21,833.00
2011,04,29,15,22,831.80
2011,04,29,15,23,830.40
2011,04,29,15,24,825.10
2011,04,29,15,25,828.20
2011,04,29,15,26,826.60
2011,04,29,15,27,821.50
2011,04,29,15,28,823.80
2011,04,29,15,29,817.10
2011,04,29,15,30,819.00
2011,04,29,15,31,819.00
2011,04,29,15,32,819.00
2011,04,29,15,33,818.30
2011,04,29,15,34,816.60
2011,04,29,15,35,814.20
2011,04,29,15,36,811.00
2011,04,29,15,37,810.00
2011,04,29,15,38,808.00
2011,04,29,15,39,805.60
2011,04,29,15,40,806.50
2011,04,29,15,41,803.60
2011,04,29,15,42,803.00
2011,04,29,15,43,802.00
2011,04,29,15,44,801.90
2011,04,29,15,45,800.30
2011,04,29,15,46,802.00
2011,04,29,15,47,801.50
2011,04,29,15,48,800.60
2011,04,29,15,49,802.40
2011,04,29,15,50,800.80
2011,04,29,15,51,796.40
2011,04,29,15,52,792.80
2011,04,29,15,53,792.30
2011,04,29,15,54,788.10
2011,04,29,15,55,786.00
2011,04,29,15,56,782.80
2011,04,29,15,57,779.30
2011,04,29,15,58,777.10
2011,04,29,15,59,776.80
2011,04,29,16,00,772.90
2011,04,29,16,01,771.20
2011,04,29,16,02,767.20
2011,04,29,16,03,763.70
2011,04,29,16,04,760.20
2011,04,29,16,05,758.50
2011,04,29,16,06,757.00
2011,04,29,16,07,756.00
2011,04,29,16,08,753.00
2011,04,29,16,09,751.00
2011,04,29,16,10,749.50
2011,04,29,16,11,745.80
2011,04,29,16,12,742.30
2011,04,29,16,13,740.10
2011,04,29,16,14,736.80
2011,04,29,16,15,732.40
2011,04,29,16,16,728.80
2011,04,29,16,17,726.90
2011,04,29,16,18,724.00
2011,04,29,16,19,722.00
2011,04,29,16,20,719.00
2011,04,29,16,21,714.50
2011,04,29,16,22,708.80
2011,04,29,16,23,706.00
2011,04,29,16,24,703.60
2011,04,29,16,25,700.80
2011,04,29,16,26,698.40
2011,04,29,16,27,696.20
2011,04,29,16,28,693.20
2011,04,29,16,29,692.80
2011,04,29,16,30,691.00
2011,04,29,16,31,690.00
2011,04,29,16,32,685.50
2011,04,29,16,33,682.60
2011,04,29,16,34,680.00
2011,04,29,16,35,679.50
2011,04,29,16,36,675.80
2011,04,29,16,37,671.90
2011,04,29,16,38,669.00
2011,04,29,16,39,668.00
2011,04,29,16,40,665.00
2011,04,29,16,41,661.50
2011,04,29,16,42,659.20
2011,04,29,16,43,656.20
2011,04,29,16,44,653.90
2011,04,29,16,45,651.50
2011,04,29,16,46,648.20
2011,04,29,16,47,644.50
2011,04,29,16,48,642.10
2011,04,29,16,49,640.00
2011,04,29,16,50,638.20
2011,04,29,16,51,635.50
2011,04,29,16,52,635.00
2011,04,29,16,53,633.70
2011,04,29,16,54,629.50
2011,04,29,16,55,623.60
2011,04,29,16,56,621.20
2011,04,29,16,57,617.40
2011,04,29,16,58,617.00
2011,04,29,16,59,614.80
2011,04,29,17,00,612.00
2011,04,29,17,01,612.00
2011,04,29,17,02,611.50
2011,04,29,17,03,608.60
2011,04,29,17,04,605.60
2011,04,29,17,05,605.00
2011,04,29,17,06,603.00
2011,04,29,17,07,602.20
2011,04,29,17,08,603.00
2011,04,29,17,09,603.00
2011,04,29,17,10,604.50
2011,04,29,17,11,605.00